| time (UTC) | temp F | wind direction | speed MPH | gust MPH | rain 1hr in | rain 24hr in | rain mn in | humidity % | barometer mb |
| 20260504012005 | 50 | 339 | 0.0 | 0.0 | 0.00 | 0.12 | 0.00 | 90 | 1011.2 |
| 20260504011506 | 50 | 338 | 0.0 | 0.0 | 0.00 | 0.12 | 0.00 | 90 | 1011.3 |
| 20260504011007 | 50 | 330 | 0.0 | 0.0 | 0.00 | 0.12 | 0.00 | 90 | 1011.4 |
| 20260504010506 | 50 | 315 | 0.0 | 0.0 | 0.00 | 0.12 | 0.00 | 90 | 1011.3 |
| 20260504010005 | 50 | 315 | 0.0 | 0.0 | 0.00 | 0.12 | 0.00 | 90 | 1011.4 |
| 20260504005506 | 50 | 352 | 0.0 | 0.0 | 0.00 | 0.12 | 0.00 | 90 | 1011.5 |
| 20260504005007 | 51 | 317 | 0.0 | 0.0 | 0.00 | 0.12 | 0.00 | 90 | 1011.4 |
| 20260504004507 | 50 | 315 | 0.0 | 0.0 | 0.00 | 0.12 | 0.00 | 90 | 1011.4 |
| 20260504004006 | 50 | 302 | 0.0 | 0.0 | 0.00 | 0.12 | 0.00 | 90 | 1011.3 |
| 20260504003505 | 51 | 22 | 0.0 | 3.0 | 0.00 | 0.12 | 0.00 | 90 | 1011.4 |
| 20260504003006 | 51 | 32 | 0.0 | 3.0 | 0.00 | 0.12 | 0.00 | 90 | 1011.4 |
| 20260504002505 | 51 | 0 | 0.0 | 0.0 | 0.00 | 0.12 | 0.00 | 90 | 1011.5 |
| 20260504002005 | 51 | 338 | 0.0 | 0.0 | 0.00 | 0.12 | 0.00 | 90 | 1011.5 |
| 20260504001505 | 51 | 338 | 0.0 | 0.0 | 0.00 | 0.12 | 0.00 | 90 | 1011.4 |
| 20260504001006 | 51 | 0 | 0.0 | 0.0 | 0.00 | 0.12 | 0.00 | 90 | 1011.4 |
| 20260504000507 | 51 | 8 | 0.0 | 0.0 | 0.00 | 0.12 | 0.00 | 90 | 1011.6 |
| 20260504000007 | 51 | 338 | 0.0 | 0.0 | 0.00 | 0.12 | 0.00 | 90 | 1011.5 |
| 20260503235511 | 51 | 338 | 0.0 | 0.0 | 0.00 | 0.12 | 0.00 | 90 | 1011.5 |
| 20260503235006 | 51 | 22 | 0.0 | 0.0 | 0.00 | 0.12 | 0.00 | 90 | 1011.5 |
| 20260503234505 | 51 | 45 | 0.0 | 0.0 | 0.00 | 0.12 | 0.00 | 90 | 1011.6 |
| 20260503234006 | 51 | 135 | 0.0 | 0.0 | 0.00 | 0.12 | 0.00 | 90 | 1011.7 |
| 20260503233507 | 51 | 68 | 0.0 | 0.0 | 0.00 | 0.12 | 0.00 | 90 | 1011.7 |
| 20260503233006 | 50 | 0 | 0.0 | 0.0 | 0.00 | 0.12 | 0.00 | 90 | 1011.6 |
| 20260503232508 | 50 | 16 | 0.0 | 0.0 | 0.00 | 0.12 | 0.00 | 90 | 1011.9 |
| 20260503232006 | 50 | 0 | 0.0 | 0.0 | 0.00 | 0.12 | 0.00 | 90 | 1011.9 |
| 20260503231507 | 50 | 0 | 0.0 | 0.0 | 0.00 | 0.12 | 0.00 | 90 | 1011.8 |
| 20260503231007 | 50 | 0 | 0.0 | 0.0 | 0.00 | 0.12 | 0.00 | 90 | 1012.0 |
| 20260503230507 | 50 | 0 | 0.0 | 0.0 | 0.00 | 0.12 | 0.00 | 89 | 1012.0 |
| 20260503230019 | 50 | 45 | 0.0 | 0.0 | 0.00 | 0.12 | 0.00 | 89 | 1012.0 |
| 20260503225519 | 50 | 292 | 0.0 | 0.0 | 0.06 | 0.12 | 0.00 | 89 | 1011.9 |
| 20260503225020 | 50 | 292 | 0.0 | 0.0 | 0.06 | 0.12 | 0.00 | 89 | 1011.8 |
| 20260503224519 | 50 | 270 | 0.0 | 0.0 | 0.06 | 0.12 | 0.00 | 89 | 1012.0 |
| 20260503224020 | 50 | 270 | 0.0 | 0.0 | 0.06 | 0.12 | 0.00 | 88 | 1012.0 |
| 20260503223519 | 50 | 270 | 0.0 | 0.0 | 0.08 | 0.12 | 0.00 | 88 | 1012.0 |
| 20260503223018 | 50 | 282 | 0.0 | 0.0 | 0.08 | 0.12 | 0.00 | 88 | 1011.8 |
| 20260503222519 | 51 | 135 | 0.0 | 0.0 | 0.08 | 0.12 | 0.00 | 88 | 1011.9 |
| 20260503222020 | 51 | 45 | 0.0 | 0.0 | 0.08 | 0.12 | 0.00 | 88 | 1011.8 |
| 20260503221520 | 51 | 45 | 0.0 | 0.0 | 0.08 | 0.12 | 0.00 | 88 | 1011.8 |
| 20260503221019 | 51 | 309 | 0.0 | 2.0 | 0.08 | 0.12 | 0.00 | 88 | 1011.7 |
| 20260503220518 | 52 | 0 | 0.0 | 2.0 | 0.08 | 0.12 | 0.00 | 89 | 1011.6 |
| 20260503220020 | 52 | 0 | 0.0 | 3.0 | 0.08 | 0.12 | 0.00 | 89 | 1011.5 |
| 20260503215518 | 53 | 39 | 1.0 | 5.0 | 0.04 | 0.08 | 0.08 | 89 | 1011.5 |
| 20260503214518 | 53 | 112 | 0.0 | 0.0 | 0.02 | 0.06 | 0.06 | 88 | 1011.2 |
| 20260503214018 | 53 | 112 | 0.0 | 0.0 | 0.02 | 0.06 | 0.06 | 88 | 1011.4 |
| 20260503213518 | 53 | 112 | 0.0 | 0.0 | 0.00 | 0.04 | 0.04 | 88 | 1011.2 |
| 20260503213019 | 53 | 112 | 0.0 | 0.0 | 0.00 | 0.04 | 0.04 | 88 | 1011.3 |
| 20260503212519 | 53 | 112 | 0.0 | 0.0 | 0.00 | 0.04 | 0.04 | 88 | 1011.2 |
| 20260503212018 | 53 | 112 | 0.0 | 0.0 | 0.00 | 0.04 | 0.04 | 88 | 1011.2 |
| 20260503211518 | 53 | 112 | 0.0 | 0.0 | 0.00 | 0.04 | 0.04 | 88 | 1011.2 |
| 20260503211018 | 53 | 112 | 0.0 | 0.0 | 0.00 | 0.04 | 0.04 | 88 | 1011.0 |
| 20260503210518 | 53 | 112 | 0.0 | 0.0 | 0.00 | 0.04 | 0.04 | 87 | 1010.9 |
| 20260503210018 | 53 | 112 | 0.0 | 0.0 | 0.00 | 0.04 | 0.04 | 87 | 1010.9 |
| 20260503205517 | 53 | 112 | 0.0 | 0.0 | 0.00 | 0.04 | 0.04 | 87 | 1010.9 |
| 20260503205019 | 53 | 112 | 0.0 | 0.0 | 0.00 | 0.04 | 0.04 | 87 | 1010.8 |
| 20260503204518 | 53 | 112 | 0.0 | 0.0 | 0.00 | 0.04 | 0.04 | 87 | 1010.8 |
| 20260503204018 | 52 | 112 | 0.0 | 0.0 | 0.00 | 0.04 | 0.04 | 87 | 1010.5 |
| 20260503203518 | 52 | 112 | 0.0 | 0.0 | 0.00 | 0.04 | 0.04 | 86 | 1010.6 |
| 20260503203018 | 52 | 135 | 0.0 | 0.0 | 0.00 | 0.04 | 0.04 | 86 | 1010.7 |
| 20260503202518 | 52 | 135 | 0.0 | 0.0 | 0.00 | 0.04 | 0.04 | 86 | 1010.6 |
| 20260503202018 | 52 | 135 | 0.0 | 0.0 | 0.00 | 0.04 | 0.04 | 85 | 1010.4 |
| 20260503201518 | 53 | 135 | 0.0 | 0.0 | 0.00 | 0.04 | 0.04 | 85 | 1010.3 |
| 20260503201020 | 53 | 135 | 0.0 | 0.0 | 0.00 | 0.04 | 0.04 | 85 | 1010.5 |
| 20260503200518 | 53 | 135 | 0.0 | 0.0 | 0.00 | 0.04 | 0.04 | 85 | 1010.6 |
| 20260503200018 | 53 | 112 | 0.0 | 0.0 | 0.00 | 0.04 | 0.04 | 84 | 1010.5 |
| 20260503195518 | 53 | 135 | 0.0 | 0.0 | 0.00 | 0.04 | 0.04 | 84 | 1010.4 |
| 20260503195018 | 54 | 112 | 0.0 | 0.0 | 0.00 | 0.04 | 0.04 | 84 | 1010.4 |
| 20260503194518 | 54 | 90 | 0.0 | 0.0 | 0.00 | 0.04 | 0.04 | 84 | 1010.2 |
| 20260503194018 | 54 | 90 | 0.0 | 0.0 | 0.00 | 0.04 | 0.04 | 84 | 1010.5 |
| 20260503193519 | 55 | 45 | 0.0 | 0.0 | 0.00 | 0.04 | 0.04 | 84 | 1010.4 |
| 20260503193018 | 55 | 45 | 0.0 | 0.0 | 0.00 | 0.04 | 0.04 | 83 | 1010.4 |
| 20260503192517 | 55 | 45 | 0.0 | 0.0 | 0.00 | 0.04 | 0.04 | 83 | 1010.4 |
| 20260503192018 | 55 | 45 | 0.0 | 0.0 | 0.00 | 0.04 | 0.04 | 83 | 1010.3 |
| 20260503191518 | 55 | 45 | 0.0 | 0.0 | 0.00 | 0.04 | 0.04 | 82 | 1010.4 |
| 20260503191018 | 55 | 45 | 0.0 | 0.0 | 0.00 | 0.04 | 0.04 | 82 | 1010.4 |
| 20260503190517 | 55 | 45 | 0.0 | 0.0 | 0.00 | 0.04 | 0.04 | 81 | 1010.3 |
| 20260503190017 | 56 | 45 | 0.0 | 0.0 | 0.00 | 0.04 | 0.04 | 81 | 1010.1 |
| 20260503185518 | 56 | 45 | 0.0 | 0.0 | 0.00 | 0.04 | 0.04 | 82 | 1010.1 |
| 20260503185019 | 56 | 45 | 0.0 | 0.0 | 0.00 | 0.04 | 0.04 | 81 | 1010.0 |
| 20260503184519 | 56 | 45 | 0.0 | 0.0 | 0.00 | 0.04 | 0.04 | 81 | 1009.9 |
| 20260503184019 | 56 | 51 | 0.0 | 0.0 | 0.00 | 0.04 | 0.04 | 81 | 1009.7 |
| 20260503183519 | 57 | 68 | 0.0 | 0.0 | 0.00 | 0.04 | 0.04 | 81 | 1009.8 |
| 20260503183018 | 57 | 68 | 0.0 | 0.0 | 0.00 | 0.04 | 0.04 | 81 | 1009.7 |
| 20260503182519 | 57 | 133 | 0.0 | 0.0 | 0.00 | 0.04 | 0.04 | 81 | 1009.7 |
| 20260503182018 | 57 | 135 | 0.0 | 0.0 | 0.00 | 0.04 | 0.04 | 81 | 1009.6 |
| 20260503181518 | 57 | 135 | 0.0 | 0.0 | 0.00 | 0.04 | 0.04 | 81 | 1009.6 |
| 20260503181017 | 57 | 135 | 0.0 | 2.0 | 0.00 | 0.04 | 0.04 | 81 | 1009.6 |
| 20260503180517 | 56 | 90 | 1.0 | 3.0 | 0.00 | 0.04 | 0.04 | 81 | 1009.6 |
| 20260503180017 | 57 | 105 | 0.0 | 0.0 | 0.00 | 0.04 | 0.04 | 81 | 1009.7 |
| 20260503175519 | 57 | 66 | 0.0 | 0.0 | 0.00 | 0.04 | 0.04 | 82 | 1009.8 |
| 20260503175018 | 57 | 77 | 0.0 | 1.0 | 0.00 | 0.04 | 0.04 | 81 | 1009.9 |
| 20260503174518 | 56 | 90 | 1.0 | 2.0 | 0.00 | 0.06 | 0.04 | 81 | 1009.9 |
| 20260503174018 | 56 | 135 | 0.0 | 2.0 | 0.00 | 0.06 | 0.04 | 81 | 1010.1 |
| 20260503173518 | 56 | 90 | 0.0 | 2.0 | 0.00 | 0.08 | 0.04 | 81 | 1009.9 |
| 20260503173018 | 56 | 158 | 0.0 | 2.0 | 0.00 | 0.10 | 0.04 | 81 | 1009.9 |
| 20260503172518 | 56 | 112 | 1.0 | 6.0 | 0.00 | 0.12 | 0.04 | 80 | 1009.8 |
| 20260503172017 | 55 | 79 | 1.0 | 6.0 | 0.00 | 0.12 | 0.04 | 80 | 1010.0 |
| 20260503171518 | 55 | 135 | 0.0 | 0.0 | 0.00 | 0.14 | 0.04 | 79 | 1010.1 |
| 20260503171018 | 55 | 135 | 0.0 | 0.0 | 0.00 | 0.14 | 0.04 | 79 | 1010.1 |
| 20260503170519 | 56 | 90 | 0.0 | 2.0 | 0.00 | 0.14 | 0.04 | 78 | 1009.9 |
| 20260503150519 | 67 | 81 | 2.0 | 5.0 | 0.00 | 0.10 | 0.00 | 61 | 1009.7 |
| 20260503131017 | 68 | 63 | 0.0 | 6.0 | 0.00 | 0.32 | 0.00 | 62 | 1011.2 |
| 20260503130518 | 68 | 90 | 1.0 | 7.0 | 0.00 | 0.32 | 0.00 | 63 | 1011.4 |
| 20260503110520 | 68 | 165 | 1.0 | 6.0 | 0.00 | 0.32 | 0.00 | 63 | 1012.4 |
| 20260503081517 | 79 | 135 | 3.0 | 6.0 | 0.00 | 0.32 | 0.00 | 55 | 1012.4 |
| 20260503081017 | 79 | 194 | 1.0 | 5.0 | 0.00 | 0.32 | 0.00 | 57 | 1012.3 |
| 20260503080516 | 78 | 179 | 0.0 | 7.0 | 0.00 | 0.32 | 0.00 | 62 | 1012.4 |
| 20260503072517 | 60 | 202 | 1.0 | 3.0 | 0.00 | 0.32 | 0.00 | 86 | 1012.5 |
| 20260503072017 | 61 | 202 | 0.0 | 3.0 | 0.00 | 0.32 | 0.00 | 87 | 1012.6 |
| 20260503071518 | 61 | 135 | 1.0 | 5.0 | 0.00 | 0.32 | 0.00 | 88 | 1012.6 |
| 20260503071018 | 61 | 268 | 0.0 | 0.0 | 0.00 | 0.32 | 0.00 | 89 | 1012.5 |
| 20260503070518 | 62 | 164 | 1.0 | 5.0 | 0.00 | 0.32 | 0.00 | 92 | 1012.4 |
| 20260503055017 | 51 | 340 | 0.0 | 0.0 | 0.00 | 0.32 | 0.00 | 93 | 1012.5 |
| 20260503054516 | 50 | 338 | 0.0 | 0.0 | 0.00 | 0.32 | 0.00 | 93 | 1012.4 |
| 20260503054018 | 50 | 338 | 0.0 | 0.0 | 0.00 | 0.32 | 0.00 | 93 | 1012.3 |
| 20260503053517 | 50 | 338 | 0.0 | 0.0 | 0.00 | 0.32 | 0.00 | 93 | 1012.2 |
| 20260503053017 | 50 | 338 | 0.0 | 0.0 | 0.00 | 0.32 | 0.00 | 92 | 1012.1 |
| 20260503052517 | 49 | 338 | 0.0 | 2.0 | 0.00 | 0.32 | 0.00 | 92 | 1012.1 |
| 20260503052017 | 49 | 251 | 0.0 | 0.0 | 0.00 | 0.32 | 0.00 | 92 | 1012.1 |
| 20260503051517 | 49 | 248 | 0.0 | 0.0 | 0.00 | 0.32 | 0.00 | 92 | 1012.0 |
| 20260503051017 | 49 | 248 | 0.0 | 0.0 | 0.00 | 0.32 | 0.00 | 92 | 1011.9 |
| 20260503050517 | 49 | 248 | 0.0 | 0.0 | 0.00 | 0.32 | 0.00 | 92 | 1011.8 |
| 20260503050018 | 49 | 248 | 0.0 | 0.0 | 0.00 | 0.32 | 0.00 | 92 | 1011.9 |
| 20260503045517 | 49 | 248 | 0.0 | 0.0 | 0.00 | 0.32 | 0.00 | 92 | 1012.0 |
| 20260503045017 | 50 | 248 | 0.0 | 0.0 | 0.00 | 0.32 | 0.00 | 92 | 1011.8 |
| 20260503044517 | 50 | 248 | 0.0 | 0.0 | 0.00 | 0.32 | 0.00 | 92 | 1011.9 |
| 20260503044016 | 50 | 248 | 0.0 | 0.0 | 0.00 | 0.32 | 0.00 | 92 | 1012.0 |
| 20260503043517 | 50 | 248 | 0.0 | 3.0 | 0.00 | 0.32 | 0.00 | 93 | 1012.1 |
| 20260503043017 | 50 | 264 | 0.0 | 0.0 | 0.00 | 0.32 | 0.00 | 93 | 1012.1 |
| 20260503042518 | 50 | 202 | 0.0 | 0.0 | 0.00 | 0.32 | 0.00 | 93 | 1012.2 |
| 20260503042016 | 50 | 180 | 0.0 | 0.0 | 0.00 | 0.32 | 0.00 | 92 | 1012.1 |
| 20260503041517 | 50 | 202 | 0.0 | 0.0 | 0.00 | 0.32 | 0.00 | 92 | 1012.0 |
| 20260503041016 | 50 | 225 | 0.0 | 0.0 | 0.00 | 0.32 | 0.00 | 92 | 1012.2 |
| 20260503040517 | 50 | 182 | 0.0 | 0.0 | 0.00 | 0.32 | 0.00 | 92 | 1012.3 |
| 20260503040017 | 50 | 180 | 0.0 | 1.0 | 0.00 | 0.32 | 0.00 | 92 | 1012.1 |
| 20260503035517 | 50 | 180 | 0.0 | 1.0 | 0.00 | 0.32 | 0.00 | 92 | 1012.2 |
| 20260503035017 | 50 | 180 | 0.0 | 2.0 | 0.00 | 0.32 | 0.00 | 92 | 1012.2 |
| 20260503034517 | 50 | 189 | 0.0 | 2.0 | 0.00 | 0.32 | 0.00 | 92 | 1012.3 |
| 20260503034017 | 50 | 180 | 0.0 | 3.0 | 0.00 | 0.32 | 0.00 | 92 | 1012.2 |
| 20260503033517 | 50 | 187 | 0.0 | 3.0 | 0.00 | 0.32 | 0.00 | 92 | 1012.3 |
| 20260503033016 | 50 | 189 | 0.0 | 1.0 | 0.00 | 0.32 | 0.00 | 92 | 1012.2 |
| 20260503032517 | 50 | 202 | 0.0 | 0.0 | 0.00 | 0.32 | 0.00 | 92 | 1012.3 |
| 20260503032017 | 50 | 120 | 0.0 | 0.0 | 0.00 | 0.32 | 0.00 | 92 | 1012.3 |
| 20260503031517 | 50 | 112 | 0.0 | 0.0 | 0.00 | 0.32 | 0.00 | 93 | 1012.4 |
| 20260503031017 | 51 | 90 | 0.0 | 0.0 | 0.00 | 0.32 | 0.00 | 93 | 1012.4 |
| 20260503030517 | 51 | 90 | 0.0 | 0.0 | 0.00 | 0.32 | 0.00 | 93 | 1012.5 |
| 20260503030016 | 50 | 90 | 0.0 | 0.0 | 0.00 | 0.32 | 0.00 | 93 | 1012.6 |
| 20260503025516 | 50 | 90 | 0.0 | 0.0 | 0.00 | 0.32 | 0.00 | 93 | 1012.8 |
| 20260503025017 | 50 | 90 | 0.0 | 0.0 | 0.00 | 0.32 | 0.00 | 93 | 1012.6 |
| 20260503024517 | 51 | 90 | 0.0 | 0.0 | 0.00 | 0.32 | 0.00 | 93 | 1012.5 |
| 20260503024017 | 51 | 45 | 0.0 | 0.0 | 0.00 | 0.32 | 0.00 | 93 | 1012.5 |
| 20260503023516 | 51 | 45 | 0.0 | 0.0 | 0.00 | 0.32 | 0.00 | 92 | 1012.5 |
| 20260503023017 | 51 | 48 | 0.0 | 0.0 | 0.00 | 0.32 | 0.00 | 92 | 1012.5 |
| 20260503022516 | 51 | 22 | 0.0 | 1.0 | 0.00 | 0.32 | 0.00 | 92 | 1012.6 |
| 20260503022018 | 51 | 315 | 0.0 | 0.0 | 0.00 | 0.32 | 0.00 | 92 | 1012.5 |
| 20260503021516 | 51 | 45 | 0.0 | 0.0 | 0.00 | 0.32 | 0.00 | 92 | 1012.5 |
| 20260503021018 | 51 | 45 | 0.0 | 0.0 | 0.00 | 0.32 | 0.00 | 92 | 1012.6 |
| 20260503020517 | 51 | 68 | 0.0 | 0.0 | 0.00 | 0.32 | 0.00 | 92 | 1012.6 |
| 20260503020016 | 51 | 62 | 0.0 | 0.0 | 0.00 | 0.32 | 0.00 | 92 | 1012.6 |
| 20260503015517 | 51 | 68 | 0.0 | 0.0 | 0.00 | 0.32 | 0.00 | 92 | 1012.8 |
| 20260503015016 | 51 | 135 | 0.0 | 0.0 | 0.00 | 0.32 | 0.00 | 92 | 1012.7 |
| 20260503014517 | 50 | 90 | 0.0 | 3.0 | 0.00 | 0.32 | 0.00 | 92 | 1012.7 |
| 20260503014016 | 50 | 99 | 0.0 | 2.0 | 0.00 | 0.32 | 0.00 | 92 | 1012.8 |
| 20260503013517 | 50 | 121 | 1.0 | 3.0 | 0.00 | 0.32 | 0.00 | 92 | 1012.8 |
| 20260503013018 | 50 | 93 | 0.0 | 1.0 | 0.00 | 0.32 | 0.00 | 92 | 1012.8 |
| 20260503012516 | 50 | 197 | 0.0 | 0.0 | 0.00 | 0.32 | 0.00 | 92 | 1012.9 |